Weather History for KBAX - September, 2012

Change the Weather History Date:

Saturday, September 29, 2012

  Actual Average (KP58) Record (KP58)
Temperature  
Mean Temperature 52 °F -  
Max Temperature 66 °F 64 °F 75 °F (2014)
Min Temperature 37 °F 48 °F 41 °F (2003)
Degree Days  
Heating Degree Days 14    
Growing Degree Days 2 (Base 50)    
Moisture  
Dew Point 43 °F    
Average Humidity 81    
Maximum Humidity 100    
Minimum Humidity 39    
Precipitation  
Precipitation 0.00 in - - ()
Sea Level Pressure  
Sea Level Pressure 30.03 in    
Wind  
Wind Speed 2 mph (NNW)    
Max Wind Speed 10 mph    
Max Gust Speed 16 mph    
Visibility 7 miles    
Events Fog    
Averages and records for this station are not official NWS values.
T = Trace of Precipitation, MM = Missing Value Source: NWS Daily Summary

Daily Weather History Graph

Daily Weather History Graph

Search for Another Location

Airport or City:

Trip Planner

Search our weather history database for the weather conditions in past years. The results will help you decide how hot, cold, wet, or windy it might be!

Date:

Astronomy

Sep. 29, 2012 Rise Set
Actual Time 7:27 AM EDT 7:15 PM EDT
Civil Twilight 6:59 AM EDT 7:44 PM EDT
Nautical Twilight 6:25 AM EDT 8:17 PM EDT
Astronomical Twilight 5:51 AM EDT 8:51 PM EDT
Moon 6:46 PM EDT 6:58 AM EDT
Length of Visible Light 12h 45m
Length of Day
11h 47m
Full, 100% of the Moon is Illuminated
Sep 29
Full
Sep 29
Full
Oct 8
Last Quarter
Oct 15
New
Oct 21
First Quarter

Hourly Weather History & Observations

Time (EDT) Temp. Windchill Dew Point Humidity Pressure Visibility Wind Dir Wind Speed Gust Speed Precip Events Conditions
12:13 AM 39.2 °F - 38.5 °F 97% 30.10 in 10.0 mi Calm Calm - N/A   Scattered Clouds
12:34 AM 39.6 °F - 39.0 °F 98% 30.10 in 4.0 mi Calm Calm - N/A   Scattered Clouds
12:54 AM 38.7 °F - 38.1 °F 98% 30.10 in 1.0 mi Calm Calm - N/A   Overcast
1:13 AM 38.5 °F - 37.9 °F 98% 30.10 in 10.0 mi Calm Calm - N/A   Overcast
1:34 AM 38.3 °F - 37.6 °F 97% 30.10 in 0.2 mi Calm Calm - N/A Fog Fog
1:54 AM 38.3 °F - 37.8 °F 98% 30.10 in 1.2 mi Calm Calm - N/A   Overcast
2:13 AM 37.6 °F - 37.2 °F 99% 30.10 in 5.0 mi Calm Calm - N/A   Overcast
2:34 AM 38.1 °F - 37.8 °F 99% 30.09 in 4.0 mi Calm Calm - N/A   Overcast
2:54 AM 37.9 °F - 37.8 °F 99% 30.09 in 0.5 mi Calm Calm - N/A Fog Fog
3:14 AM 38.5 °F - 38.3 °F 99% 30.08 in 3.0 mi Calm Calm - N/A   Mostly Cloudy
3:34 AM 39.2 °F - 38.8 °F 99% 30.07 in 0.5 mi Calm Calm - N/A Fog Fog
3:54 AM 39.7 °F - 39.7 °F 100% 30.07 in 3.0 mi Calm Calm - N/A   Scattered Clouds
4:14 AM 39.9 °F - 39.9 °F 100% 30.07 in 0.8 mi Calm Calm - N/A   Scattered Clouds
4:34 AM 40.1 °F - 40.1 °F 100% 30.07 in 0.5 mi Calm Calm - N/A Fog Fog
4:54 AM 43.3 °F - 43.3 °F 100% 30.06 in 2.0 mi Calm Calm - N/A   Clear
5:14 AM 43.2 °F 41.5 °F 43.2 °F 100% 30.06 in 3.0 mi South 3.5 mph - N/A   Clear
5:34 AM 43.0 °F - 43.0 °F 100% 30.06 in 1.5 mi Calm Calm - N/A   Mist
5:54 AM 41.5 °F - 41.5 °F 100% 30.06 in 1.0 mi Calm Calm - N/A   Mist
6:14 AM 42.8 °F - 42.8 °F 100% 30.06 in 1.5 mi Calm Calm - N/A   Scattered Clouds
6:34 AM 42.1 °F - 42.1 °F 100% 30.06 in 2.0 mi Calm Calm - N/A   Scattered Clouds
6:55 AM 42.4 °F - 42.4 °F 100% 30.07 in 0.5 mi Calm Calm - N/A Fog Fog
7:14 AM 40.5 °F - 40.5 °F 100% 30.07 in 0.8 mi Calm Calm - N/A   Overcast
7:34 AM 41.0 °F - 41.0 °F 100% 30.07 in 1.5 mi Calm Calm - N/A   Mostly Cloudy
7:54 AM 43.5 °F - 43.5 °F 100% 30.07 in 1.2 mi Calm Calm - N/A   Mostly Cloudy
8:14 AM 42.8 °F - 42.8 °F 100% 30.07 in 4.0 mi Calm Calm - N/A   Scattered Clouds
8:34 AM 44.2 °F 42.7 °F 44.2 °F 100% 30.07 in 5.0 mi South 3.5 mph - N/A   Clear
8:54 AM 46.8 °F - 46.8 °F 100% 30.07 in 5.0 mi Calm Calm - N/A   Scattered Clouds
9:14 AM 48.9 °F - 48.9 °F 100% 30.07 in 7.0 mi Calm Calm - N/A   Mostly Cloudy
9:35 AM 49.5 °F - 49.5 °F 100% 30.07 in 7.0 mi Calm Calm - N/A   Mostly Cloudy
9:54 AM 50.5 °F - 50.5 °F 100% 30.07 in 7.0 mi Calm Calm - N/A   Mostly Cloudy
10:14 AM 54.3 °F - 54.0 °F 99% 30.06 in 10.0 mi Calm Calm - N/A   Clear
10:34 AM 57.9 °F - 54.3 °F 88% 30.05 in 10.0 mi Calm Calm - N/A   Clear
10:54 AM 59.0 °F - 50.5 °F 73% 30.05 in 10.0 mi Calm Calm - N/A   Clear
11:14 AM 61.5 °F - 51.1 °F 69% 30.04 in 10.0 mi NW 4.6 mph - N/A   Clear
11:34 AM 61.7 °F - 46.9 °F 58% 30.04 in 10.0 mi NW 6.9 mph - N/A   Clear
11:54 AM 62.6 °F - 47.7 °F 58% 30.04 in 10.0 mi WNW 4.6 mph - N/A   Clear
12:15 PM 63.0 °F - 43.2 °F 48% 30.03 in 10.0 mi WNW 5.8 mph - N/A   Clear
12:34 PM 63.9 °F - 44.8 °F 50% 30.03 in 10.0 mi NNW 4.6 mph - N/A   Clear
12:54 PM 64.2 °F - 46.0 °F 52% 30.03 in 10.0 mi NW 8.1 mph - N/A   Clear
1:15 PM 64.2 °F - 42.8 °F 46% 30.02 in 10.0 mi WNW 4.6 mph - N/A   Clear
1:34 PM 64.9 °F - 41.9 °F 43% 30.01 in 10.0 mi NW 4.6 mph - N/A   Clear
1:54 PM 64.9 °F - 41.7 °F 43% 30.00 in 10.0 mi NNW 6.9 mph - N/A   Clear
2:15 PM 65.8 °F - 40.5 °F 39% 30.00 in 10.0 mi WNW 5.8 mph - N/A   Clear
2:34 PM 65.3 °F - 39.9 °F 39% 29.99 in 10.0 mi North 3.5 mph - N/A   Scattered Clouds
2:54 PM 66.4 °F - 40.5 °F 39% 29.99 in 10.0 mi NW 10.4 mph - N/A   Scattered Clouds
3:15 PM 63.3 °F - 44.6 °F 50% 29.99 in 10.0 mi North 8.1 mph - N/A   Scattered Clouds
3:34 PM 65.1 °F - 41.9 °F 43% 29.98 in 10.0 mi NNW 6.9 mph 16.1 mph N/A   Clear
3:54 PM 65.1 °F - 41.0 °F 41% 29.98 in 10.0 mi NNW 8.1 mph - N/A   Clear
4:15 PM 64.2 °F - 42.1 °F 44% 29.98 in 10.0 mi North 6.9 mph - N/A   Scattered Clouds
4:34 PM 64.0 °F - 43.0 °F 46% 29.97 in 10.0 mi NNW 10.4 mph - N/A   Clear
4:55 PM 63.7 °F - 41.4 °F 44% 29.97 in 10.0 mi NNW 10.4 mph 16.1 mph N/A   Clear
5:14 PM 62.6 °F - 40.6 °F 45% 29.97 in 10.0 mi NNW 10.4 mph - N/A   Clear
5:34 PM 61.9 °F - 38.8 °F 43% 29.97 in 10.0 mi North 6.9 mph - N/A   Clear
5:55 PM 60.8 °F - 43.7 °F 53% 29.98 in 10.0 mi North 8.1 mph - N/A   Clear
6:14 PM 59.5 °F - 44.6 °F 58% 29.98 in 10.0 mi North 8.1 mph - N/A   Clear
6:34 PM 58.1 °F - 46.0 °F 64% 29.98 in 10.0 mi NNE 9.2 mph - N/A   Clear
6:55 PM 56.3 °F - 48.2 °F 74% 29.98 in 10.0 mi NNE 8.1 mph - N/A   Clear
7:14 PM 54.3 °F - 48.6 °F 81% 29.99 in 10.0 mi NNE 5.8 mph - N/A   Clear
7:34 PM 53.2 °F - 49.1 °F 86% 29.99 in 10.0 mi Calm Calm - N/A   Clear
7:55 PM 51.8 °F - 48.0 °F 87% 29.99 in 10.0 mi Calm Calm - N/A   Clear
8:14 PM 49.1 °F - 45.5 °F 87% 29.99 in 10.0 mi Calm Calm - N/A   Clear
8:34 PM 47.3 °F - 44.6 °F 90% 29.99 in 10.0 mi Calm Calm - N/A   Clear
8:55 PM 47.3 °F - 45.5 °F 93% 29.99 in 10.0 mi Calm Calm - N/A   Scattered Clouds
9:14 PM 46.2 °F - 44.8 °F 95% 29.99 in 10.0 mi Calm Calm - N/A   Clear
9:35 PM 46.9 °F - 46.0 °F 97% 29.99 in 10.0 mi Calm Calm - N/A   Clear
9:54 PM 46.0 °F - 45.1 °F 97% 29.99 in 2.5 mi Calm Calm - N/A   Clear
10:14 PM 44.8 °F - 44.2 °F 98% 29.99 in 5.0 mi Calm Calm - N/A   Clear
10:35 PM 44.8 °F - 44.1 °F 97% 29.98 in 7.0 mi Calm Calm - N/A   Clear
10:54 PM 44.1 °F - 43.5 °F 98% 29.98 in 10.0 mi Calm Calm - N/A   Clear
11:14 PM 44.8 °F - 44.2 °F 98% 29.98 in 10.0 mi Calm Calm - N/A   Clear
11:35 PM 46.4 °F - 45.7 °F 97% 29.98 in 10.0 mi Calm Calm - N/A   Scattered Clouds
11:54 PM 43.5 °F - 42.4 °F 96% 29.97 in 7.0 mi Calm Calm - N/A   Scattered Clouds